Tracking 29494 objects as of 7-Sep-2024
HD Live streaming from Space Station
objects crossing your sky now

STARLINK-3131

Track STARLINK-3131 now!
10-day predictions
STARLINK-3131 is classified as:


NORAD ID: 49427
Int'l Code: 2021-104V
Perigee: 545.9 km
Apogee: 547.8 km
Inclination: 53.2 °
Period: 95.4 minutes
Semi major axis: 6917 km
RCS: Unknown
Launch date: November 13, 2021
Source: United States (US)
Launch site: AIR FORCE EASTERN TEST RANGE (AFETR)
Your satellite tracking list
Your tracking list is empty




NASA's NSSDC Master Catalog

Two Line Element Set (TLE):
1 49427U 21104V   24251.46956741  .00001976  00000-0  14219-3 0  9993
2 49427  53.2153 170.1819 0001306  84.5386 275.5755 15.08850165155879
Source of the keplerian elements: AFSPC